Вернуться в каталог

KINEIS-5B

АктивенСвязьSSO
NORAD 62085·PAYLOAD·🇫🇷 France

Запущен Nov 25, 2024 с Rocket Lab Launch Complex 1

Loading…

Ближайшие Пролёты (ближайшие 24 часа)

TLE

СвежийSource: Space-Track

Эпоха: Sep 14, 2026, 14:09 UTC

1 62085U 24219E   26257.58973344  .00000787  00000-0  11499-3 0  9993
2 62085  98.0165  60.9677 0001879  24.9610 335.1691 14.78487467 97217

Отслеживайте KINEIS-5B в реальном времени с AllMySat

Download on the App Store